Starlink 30442

operational
NORAD ID: 57868 Int'l Des: 2023-144 Owner: SPXS Country: US Constellation: starlink
LEOCIRCULAR

About Starlink 30442

Description loading...

Live Position

Loading 3D Globe...

Upcoming Passes

Altitude History

Altitude vs Time

uPlot chart will show altitude changes over time

Two-Line Element Set

1 57868U 23144E 25304.63285183 .00000437 00000-0 47385-4 0 9993
2 57868 43.0026 268.9949 0000900 272.8139 87.2601 15.02534869118152
Epoch: Oct 31, 2025 • Age: 26 hours

Current Status

Altitude 558.7 km
Velocity 7.59 km/s
Sub-Earth Point 18.12°N, 120.48°E
Launch Date Sep 16, 2023
Age 2.1 years
Type internet

Technical Details

Classification Payload
Mass 730.00 kg
Dry Mass 700.00 kg
Total Mass 730.00 kg
Length 0.30 m
Diameter 4.10 m
Span 29.00 m
Shape Box + pan
Manufacturer SPXS
Bus Type Starlink V2M
Phase Status In Orbit
Owner/State SPXS/US

Large Constellations

Loading constellations...